Погода в Кичменгском Городке

Россия / Вологодская область     59°59′31″N   45°48′08″E
темп.,
°C
ветер,
м/с
пор.,
м/с
влажн.,
%
обл.,
%
осадки,
мм/ч
давл.,
гПа
погр.,
м
1 августа, вс
вс100:00+13юз311975 0.0 1002283
03:00+12юз312965 0.0 1003485
06:00+14зюз4109096 0.0 1004674
09:00+16з4983100 0.0 1006725
12:00+21з475988 0.1 10061535
15:00+22з485798 0.5 10071719
18:00+21зюз2664100 0.0 1008470
21:00+16ююз3578100 0.0 100881
2 августа, пн
пн200:00+15ю379999 6.1 1009237
03:00+15ююз3109814 6.2 1008311
06:00+15юз399724 0.0 1008341
09:00+19зюз3675100 0.0 1009532
12:00+24юз3549100 0.0 10091537
15:00+26юз354453 0.0 10082032
18:00+24юз126194 0.0 100882
21:00+18юв227666 0.0 100732
3 августа, вт
вт300:00+17ююв3996100 1.8 1007244
03:00+17ююв3119894 2.8 1005320
06:00+19ююв4149385 0.1 1004499
09:00+25ю4763100 0.1 1002650
12:00+26ююз5857100 0.0 10021290
15:00+24юз59738 0.8 10031170
18:00+20зюз3893100 1.7 1003455
21:00+18з2697100 2.2 1005152
4 августа, ср
ср400:00+17зсз229796 0.4 100552
03:00+15з229664 0.4 100722
06:00+15з2594100 0.0 1008168
09:00+21з356097 0.0 1008825
12:00+23з454449 0.0 10092109
15:00+24з454066 0.0 10092360
18:00+20з37530 0.0 1011604
21:00+14сз311710 0.0 1013308
5 августа, чт
чт500:00+10сз26840 0.0 1015131
03:00+8сз259553 0.0 101799
06:00+11ссз36825 0.0 1018278
09:00+15сз36565 0.0 10191215
12:00+17сз45435 0.0 10191678
15:00+18ссз34408 0.0 10191845
18:00+17с235365 0.0 1019251
21:00+10ссв117439 0.0 102010